Baker, MT

6:01 PM MDT on June 23, 2017 (GMT -0600)
Baker Municipal

Weather History for KBHK - March, 2014

Change the Weather History Date:

Tuesday, March 18, 2014

  Actual Average Record
Temperature  
Mean Temperature 32 °F -  
Max Temperature 42 °F 38 °F 73 °F (2012)
Min Temperature 26 °F 18 °F 6 °F (2013)
Degree Days  
Heating Degree Days 32    
Moisture  
Dew Point 27 °F    
Average Humidity 82    
Maximum Humidity 100    
Minimum Humidity 50    
Precipitation  
Precipitation 0.00 in - - ()
Sea Level Pressure  
Sea Level Pressure 29.93 in    
Wind  
Wind Speed 10 mph (NW)    
Max Wind Speed 21 mph    
Max Gust Speed 30 mph    
Visibility 9 miles    
Events      
Averages and records for this station are not official NWS values.
T = Trace of Precipitation, MM = Missing Value Source: NWS Daily Summary

Daily Weather History Graph

Daily Weather History Graph

Search for Another Location

Airport or City:

Trip Planner

Search our weather history database for the weather conditions in past years. The results will help you decide how hot, cold, wet, or windy it might be!

Date:

Astronomy

Mar. 18, 2014 Rise Set
Actual Time 7:03 AM MDT 7:07 PM MDT
Civil Twilight 6:33 AM MDT 7:37 PM MDT
Nautical Twilight 5:58 AM MDT 8:12 PM MDT
Astronomical Twilight 5:22 AM MDT 8:48 PM MDT
Moon 9:36 PM MDT (3/18) 7:47 AM MDT (3/18)
Length of Visible Light 13h 03m
Length of Day
12h 03m
Waning Gibbous, 96% of the Moon is Illuminated
Mar 18
Waning Gibbous
Mar 23
Last Quarter
Mar 30
New
Apr 7
First Quarter
Apr 15
Full

Hourly Weather History & Observations

Time (MDT) Temp. Windchill Dew Point Humidity Pressure Visibility Wind Dir Wind Speed Gust Speed Precip Events Conditions
12:03 AM 34.0 °F 27.2 °F 32.0 °F 92% 29.69 in 8.0 mi NW 8.1 mph - N/A   Overcast
12:14 AM 33.1 °F 26.9 °F 33.1 °F 100% 29.69 in 1.8 mi NW 6.9 mph - N/A   Overcast
12:22 AM 33.1 °F 26.9 °F 32.0 °F 96% 29.70 in 3.0 mi WNW 6.9 mph - N/A   Overcast
12:33 AM 33.1 °F 25.5 °F 32.0 °F 96% 29.70 in 8.0 mi NW 9.2 mph - N/A   Overcast
12:51 AM 33.1 °F 26.1 °F 32.0 °F 96% 29.74 in 10.0 mi NW 8.1 mph - N/A   Overcast
1:51 AM 32.0 °F 24.2 °F 30.0 °F 92% 29.78 in 10.0 mi NNW 9.2 mph - N/A   Clear
2:51 AM 30.9 °F 23.5 °F 28.0 °F 89% 29.80 in 10.0 mi NNW 8.1 mph - N/A   Clear
3:51 AM 28.9 °F 19.8 °F 27.0 °F 92% 29.82 in 10.0 mi WNW 10.4 mph - N/A   Clear
4:51 AM 27.0 °F 17.3 °F 25.0 °F 92% 29.85 in 10.0 mi WNW 10.4 mph - N/A   Clear
5:51 AM 26.1 °F 16.2 °F 24.1 °F 92% 29.88 in 10.0 mi WNW 10.4 mph - N/A   Clear
6:51 AM 26.1 °F 16.8 °F 24.1 °F 92% 29.92 in 10.0 mi WNW 9.2 mph - N/A   Clear
7:51 AM 27.0 °F 16.1 °F 25.0 °F 92% 29.94 in 10.0 mi West 12.7 mph - N/A   Mostly Cloudy
8:10 AM 28.0 °F 18.6 °F 26.1 °F 92% 29.87 in 10.0 mi West 10.4 mph - N/A   Overcast
8:51 AM 30.0 °F 20.5 °F 28.0 °F 92% 29.96 in 10.0 mi NW 11.5 mph - N/A   Overcast
9:51 AM 30.9 °F 22.2 °F 28.0 °F 89% 29.99 in 10.0 mi NW 10.4 mph - N/A   Overcast
10:51 AM 34.0 °F 24.6 °F 30.9 °F 89% 30.01 in 10.0 mi NW 13.8 mph - N/A   Overcast
11:16 AM 35.1 °F 25.2 °F 30.9 °F 85% 29.94 in 10.0 mi NW 16.1 mph - N/A   Overcast
11:30 AM 35.1 °F 25.2 °F 30.9 °F 85% 29.95 in 10.0 mi NW 16.1 mph - N/A   Overcast
11:51 AM 35.1 °F 25.2 °F 30.0 °F 82% 30.03 in 10.0 mi NNW 16.1 mph - N/A   Overcast
12:51 PM 37.9 °F 28.2 °F 28.9 °F 70% 30.02 in 10.0 mi NNW 18.4 mph - N/A   Overcast
1:51 PM 37.9 °F 27.6 °F 28.0 °F 68% 30.03 in 10.0 mi NW 20.7 mph - N/A   Scattered Clouds
3:51 PM 39.9 °F 30.8 °F 24.1 °F 53% 30.01 in 10.0 mi NW 18.4 mph 27.6 mph N/A   Mostly Cloudy
4:51 PM 39.9 °F 30.2 °F 24.1 °F 53% 30.02 in 10.0 mi NW 20.7 mph 29.9 mph N/A   Overcast
5:51 PM 39.0 °F 30.3 °F 21.9 °F 50% 30.04 in 10.0 mi NNW 16.1 mph 27.6 mph N/A   Mostly Cloudy
6:51 PM 37.0 °F 28.5 °F 23.0 °F 57% 30.05 in 10.0 mi NNW 13.8 mph - N/A   Mostly Cloudy
7:51 PM 32.0 °F 27.5 °F 21.9 °F 66% 30.07 in 10.0 mi NW 4.6 mph - N/A   Clear
8:51 PM 30.9 °F - 21.9 °F 69% 30.08 in 10.0 mi Calm Calm - N/A   Clear
9:51 PM 28.0 °F 24.2 °F 21.9 °F 78% 30.09 in 10.0 mi WSW 3.5 mph - N/A   Clear
10:51 PM 28.0 °F 24.2 °F 21.9 °F 78% 30.08 in 10.0 mi West 3.5 mph - N/A   Scattered Clouds
11:51 PM 30.9 °F 22.2 °F 25.0 °F 79% 30.08 in 10.0 mi WSW 10.4 mph - N/A   Overcast